| time (UTC) | temp F | wind direction | speed knots | gust knots | rain 1hr in | rain 24hr in | rain mn in | humidity % | barometer mb |
| 20260903190322 | 74 | 325 | 4.3 | 8.7 | 0.00 | 0.00 | 0.00 | 62 | 1009.2 |
| 20260903185820 | 74 | 22 | 4.3 | 8.7 | 0.00 | 0.00 | 0.00 | 62 | 1009.3 |
| 20260903184318 | 74 | 315 | 4.3 | 11.3 | 0.00 | 0.00 | 0.00 | 62 | 1009.6 |
| 20260903183318 | 74 | 318 | 3.5 | 9.6 | 0.00 | 0.00 | 0.00 | 62 | 1009.6 |
| 20260903182816 | 74 | 320 | 3.5 | 7.8 | 0.00 | 0.00 | 0.00 | 64 | 1009.6 |
| 20260903182312 | 73 | 311 | 3.5 | 7.0 | 0.00 | 0.00 | 0.00 | 62 | 1009.6 |
| 20260903181811 | 73 | 337 | 3.5 | 7.8 | 0.00 | 0.00 | 0.00 | 62 | 1009.6 |
| 20260903181307 | 74 | 309 | 3.5 | 7.8 | 0.00 | 0.00 | 0.00 | 60 | 1009.7 |
| 20260903180804 | 75 | 321 | 3.5 | 7.0 | 0.00 | 0.00 | 0.00 | 59 | 1009.7 |
| 20260903180305 | 75 | 355 | 2.6 | 7.0 | 0.00 | 0.00 | 0.00 | 59 | 1009.7 |
| 20260903175804 | 75 | 13 | 2.6 | 5.2 | 0.00 | 0.00 | 0.00 | 61 | 1009.7 |
| 20260903174759 | 74 | 309 | 2.6 | 5.2 | 0.00 | 0.00 | 0.00 | 61 | 1009.7 |
| 20260903174259 | 73 | 344 | 1.7 | 6.1 | 0.00 | 0.00 | 0.00 | 62 | 1009.7 |
| 20260903173755 | 73 | 334 | 2.6 | 6.1 | 0.00 | 0.00 | 0.00 | 63 | 1009.7 |
| 20260903173251 | 73 | 328 | 1.7 | 5.2 | 0.00 | 0.00 | 0.00 | 63 | 1009.7 |
| 20260903172750 | 73 | 329 | 2.6 | 7.0 | 0.00 | 0.00 | 0.00 | 64 | 1009.8 |
| 20260903172250 | 72 | 327 | 2.6 | 7.0 | 0.00 | 0.00 | 0.00 | 64 | 1009.7 |
| 20260903171751 | 71 | 340 | 1.7 | 5.2 | 0.00 | 0.00 | 0.00 | 66 | 1009.7 |
| 20260903171248 | 70 | 333 | 1.7 | 4.3 | 0.00 | 0.00 | 0.00 | 68 | 1009.7 |
| 20260903170747 | 69 | 333 | 2.6 | 4.3 | 0.00 | 0.00 | 0.00 | 68 | 1009.7 |
| 20260903170246 | 69 | 334 | 2.6 | 5.2 | 0.00 | 0.00 | 0.00 | 70 | 1009.7 |
| 20260903165745 | 69 | 334 | 2.6 | 5.2 | 0.00 | 0.00 | 0.00 | 71 | 1010.0 |
| 20260903164743 | 69 | 317 | 1.7 | 4.3 | 0.00 | 0.00 | 0.00 | 70 | 1010.0 |
| 20260903164242 | 68 | 322 | 1.7 | 4.3 | 0.00 | 0.00 | 0.00 | 73 | 1010.1 |
| 20260903163738 | 68 | 321 | 2.6 | 6.1 | 0.00 | 0.00 | 0.00 | 74 | 1010.1 |
| 20260903162738 | 67 | 327 | 1.7 | 5.2 | 0.00 | 0.00 | 0.00 | 76 | 1010.1 |
| 20260903162234 | 66 | 5 | 1.7 | 5.2 | 0.00 | 0.00 | 0.00 | 78 | 1010.1 |
| 20260903161736 | 65 | 320 | 2.6 | 5.2 | 0.00 | 0.00 | 0.00 | 77 | 1010.1 |
| 20260903160730 | 64 | 329 | 2.6 | 4.3 | 0.00 | 0.00 | 0.00 | 81 | 1010.2 |
| 20260903155226 | 63 | 331 | 1.7 | 5.2 | 0.00 | 0.00 | 0.00 | 85 | 1010.1 |
| 20260903154723 | 62 | 328 | 2.6 | 5.2 | 0.00 | 0.00 | 0.00 | 86 | 1010.1 |
| 20260903154223 | 62 | 317 | 2.6 | 5.2 | 0.00 | 0.00 | 0.00 | 86 | 1010.2 |
| 20260903153726 | 62 | 329 | 1.7 | 5.2 | 0.00 | 0.00 | 0.00 | 86 | 1010.2 |
| 20260903153223 | 62 | 329 | 1.7 | 5.2 | 0.00 | 0.00 | 0.00 | 87 | 1010.2 |
| 20260903152721 | 61 | 333 | 1.7 | 4.3 | 0.00 | 0.00 | 0.00 | 88 | 1010.4 |
| 20260903152220 | 61 | 333 | 1.7 | 4.3 | 0.00 | 0.00 | 0.00 | 88 | 1010.4 |
| 20260903151216 | 61 | 343 | 1.7 | 3.5 | 0.00 | 0.00 | 0.00 | 89 | 1010.5 |
| 20260903150714 | 60 | 344 | 1.7 | 3.5 | 0.00 | 0.00 | 0.00 | 90 | 1010.5 |
| 20260903150218 | 60 | 344 | 1.7 | 3.5 | 0.00 | 0.00 | 0.00 | 90 | 1010.5 |
| 20260903145210 | 59 | 341 | 1.7 | 4.3 | 0.00 | 0.00 | 0.00 | 91 | 1010.5 |
| 20260903144705 | 59 | 325 | 1.7 | 4.3 | 0.00 | 0.00 | 0.00 | 92 | 1010.5 |
| 20260903144202 | 59 | 313 | 0.9 | 4.3 | 0.00 | 0.00 | 0.00 | 92 | 1010.4 |
| 20260903143658 | 58 | 290 | 0.9 | 2.6 | 0.00 | 0.00 | 0.00 | 92 | 1010.4 |
| 20260903143158 | 58 | 290 | 0.9 | 3.5 | 0.00 | 0.00 | 0.00 | 93 | 1010.4 |
| 20260903142154 | 58 | 290 | 0.9 | 2.6 | 0.00 | 0.00 | 0.00 | 93 | 1010.1 |
| 20260903141145 | 57 | 290 | 0.0 | 1.7 | 0.00 | 0.00 | 0.00 | 93 | 1010.1 |
| 20260903140647 | 57 | 290 | 0.9 | 2.6 | 0.00 | 0.00 | 0.00 | 93 | 1010.1 |
| 20260903140146 | 57 | 290 | 0.9 | 3.5 | 0.00 | 0.00 | 0.00 | 93 | 1010.1 |
| 20260903135640 | 56 | 290 | 1.7 | 3.5 | 0.00 | 0.00 | 0.00 | 93 | 1010.0 |
| 20260903135137 | 56 | 290 | 0.9 | 2.6 | 0.00 | 0.00 | 0.00 | 93 | 1010.0 |
| 20260903134136 | 56 | 290 | 0.9 | 3.5 | 0.00 | 0.00 | 0.00 | 92 | 1010.0 |
| 20260903133136 | 56 | 290 | 0.0 | 2.6 | 0.00 | 0.00 | 0.00 | 92 | 1010.0 |
| 20260903132632 | 56 | 290 | 0.0 | 1.7 | 0.00 | 0.00 | 0.00 | 92 | 1010.0 |
| 20260903132128 | 57 | 290 | 0.0 | 1.7 | 0.00 | 0.00 | 0.00 | 92 | 1010.0 |
| 20260903131630 | 57 | 290 | 0.9 | 2.6 | 0.00 | 0.00 | 0.00 | 92 | 1010.0 |
| 20260903131126 | 57 | 290 | 0.9 | 2.6 | 0.00 | 0.00 | 0.00 | 91 | 1010.0 |
| 20260903130619 | 57 | 290 | 0.9 | 1.7 | 0.00 | 0.00 | 0.00 | 91 | 1010.0 |
| 20260903130116 | 57 | 290 | 0.0 | 1.7 | 0.00 | 0.00 | 0.00 | 91 | 1010.0 |
| 20260903125617 | 57 | 290 | 0.0 | 1.7 | 0.00 | 0.00 | 0.00 | 91 | 1010.0 |
| 20260903125117 | 58 | 290 | 0.9 | 1.7 | 0.00 | 0.00 | 0.00 | 91 | 1010.0 |
| 20260903124610 | 58 | 290 | 0.0 | 1.7 | 0.00 | 0.00 | 0.00 | 91 | 1010.0 |
| 20260903124108 | 58 | 290 | 0.9 | 1.7 | 0.00 | 0.00 | 0.00 | 91 | 1009.8 |
| 20260903123611 | 58 | 290 | 0.9 | 1.7 | 0.00 | 0.00 | 0.00 | 90 | 1009.8 |
| 20260903123105 | 58 | 290 | 0.9 | 1.7 | 0.00 | 0.00 | 0.00 | 90 | 1009.8 |
| 20260903122604 | 58 | 290 | 0.9 | 1.7 | 0.00 | 0.00 | 0.00 | 90 | 1009.9 |
| 20260903122101 | 58 | 290 | 0.9 | 1.7 | 0.00 | 0.00 | 0.00 | 90 | 1009.9 |
| 20260903121558 | 58 | 290 | 0.0 | 1.7 | 0.00 | 0.00 | 0.00 | 91 | 1009.9 |
| 20260903121058 | 59 | 290 | 0.0 | 2.6 | 0.00 | 0.00 | 0.00 | 91 | 1010.0 |
| 20260903120558 | 59 | 290 | 0.0 | 2.6 | 0.00 | 0.00 | 0.00 | 91 | 1010.0 |
| 20260903120057 | 59 | 290 | 0.0 | 1.7 | 0.00 | 0.00 | 0.00 | 91 | 1010.0 |
| 20260903115555 | 59 | 290 | 0.9 | 3.5 | 0.00 | 0.00 | 0.00 | 91 | 1010.1 |
| 20260903115053 | 59 | 290 | 0.9 | 3.5 | 0.00 | 0.00 | 0.00 | 91 | 1010.1 |
| 20260903114552 | 59 | 290 | 0.0 | 1.7 | 0.00 | 0.00 | 0.00 | 92 | 1010.1 |
| 20260903114050 | 59 | 290 | 0.0 | 0.0 | 0.00 | 0.00 | 0.00 | 92 | 1010.1 |
| 20260903113550 | 58 | 290 | 0.0 | 0.0 | 0.00 | 0.00 | 0.00 | 92 | 1010.1 |
| 20260903112047 | 58 | 290 | 0.0 | 0.9 | 0.00 | 0.00 | 0.00 | 92 | 1010.2 |
| 20260903111545 | 58 | 290 | 0.0 | 1.7 | 0.00 | 0.00 | 0.00 | 92 | 1010.2 |
| 20260903111045 | 58 | 290 | 0.0 | 1.7 | 0.00 | 0.00 | 0.00 | 92 | 1010.3 |
| 20260903110052 | 58 | 290 | 0.0 | 1.7 | 0.00 | 0.00 | 0.00 | 93 | 1010.3 |
| 20260903105544 | 58 | 290 | 0.0 | 0.9 | 0.00 | 0.00 | 0.00 | 92 | 1010.5 |
| 20260903105045 | 58 | 290 | 0.0 | 0.0 | 0.00 | 0.00 | 0.00 | 92 | 1010.5 |
| 20260903104540 | 58 | 290 | 0.0 | 0.0 | 0.00 | 0.00 | 0.00 | 92 | 1010.5 |
| 20260903104038 | 58 | 290 | 0.0 | 0.0 | 0.00 | 0.00 | 0.00 | 92 | 1010.5 |
| 20260903103534 | 58 | 290 | 0.0 | 0.0 | 0.00 | 0.00 | 0.00 | 92 | 1010.5 |
| 20260903102029 | 58 | 290 | 0.0 | 0.0 | 0.00 | 0.00 | 0.00 | 92 | 1010.5 |
| 20260903101024 | 58 | 290 | 0.0 | 1.7 | 0.00 | 0.00 | 0.00 | 92 | 1010.5 |
| 20260903100519 | 58 | 290 | 0.0 | 1.7 | 0.00 | 0.00 | 0.00 | 92 | 1010.5 |
| 20260903100019 | 58 | 290 | 0.9 | 2.6 | 0.00 | 0.00 | 0.00 | 92 | 1010.5 |
| 20260903095516 | 58 | 290 | 0.9 | 2.6 | 0.00 | 0.00 | 0.00 | 92 | 1010.5 |
| 20260903095011 | 58 | 290 | 0.9 | 2.6 | 0.00 | 0.00 | 0.00 | 91 | 1010.5 |
| 20260903094516 | 58 | 290 | 0.9 | 2.6 | 0.00 | 0.00 | 0.00 | 91 | 1010.5 |
| 20260903094012 | 58 | 290 | 0.9 | 1.7 | 0.00 | 0.00 | 0.00 | 91 | 1010.6 |
| 20260903093504 | 58 | 290 | 0.0 | 3.5 | 0.00 | 0.00 | 0.00 | 91 | 1010.6 |
| 20260903093006 | 58 | 290 | 0.9 | 3.5 | 0.00 | 0.00 | 0.00 | 91 | 1010.6 |
| 20260903092502 | 58 | 290 | 0.9 | 2.6 | 0.00 | 0.00 | 0.00 | 91 | 1010.9 |
| 20260903092000 | 58 | 290 | 0.9 | 2.6 | 0.00 | 0.00 | 0.00 | 91 | 1010.9 |
| 20260903091500 | 59 | 290 | 0.9 | 2.6 | 0.00 | 0.00 | 0.00 | 91 | 1010.9 |
| 20260903090958 | 59 | 290 | 0.9 | 2.6 | 0.00 | 0.00 | 0.00 | 91 | 1011.1 |
| 20260903090458 | 59 | 290 | 0.9 | 2.6 | 0.00 | 0.00 | 0.00 | 91 | 1011.1 |
| 20260903085955 | 59 | 290 | 0.9 | 2.6 | 0.00 | 0.00 | 0.00 | 91 | 1011.1 |
| 20260903085459 | 59 | 290 | 0.9 | 5.2 | 0.00 | 0.00 | 0.00 | 91 | 1011.1 |
| 20260903084452 | 59 | 290 | 1.7 | 4.3 | 0.00 | 0.00 | 0.00 | 90 | 1011.1 |
| 20260903083950 | 59 | 290 | 0.9 | 4.3 | 0.00 | 0.00 | 0.00 | 90 | 1011.1 |
| 20260903083449 | 59 | 290 | 0.9 | 2.6 | 0.00 | 0.00 | 0.00 | 90 | 1011.1 |
| 20260903082445 | 59 | 290 | 0.9 | 2.6 | 0.00 | 0.00 | 0.00 | 90 | 1011.2 |
| 20260903081946 | 59 | 290 | 0.9 | 2.6 | 0.00 | 0.00 | 0.00 | 90 | 1011.2 |
| 20260903081442 | 59 | 290 | 0.9 | 2.6 | 0.00 | 0.00 | 0.00 | 89 | 1011.2 |
| 20260903080438 | 60 | 290 | 0.0 | 1.7 | 0.00 | 0.00 | 0.00 | 89 | 1011.4 |
| 20260903075936 | 60 | 290 | 0.0 | 1.7 | 0.00 | 0.00 | 0.00 | 89 | 1011.4 |
| 20260903074926 | 60 | 290 | 0.0 | 2.6 | 0.00 | 0.00 | 0.00 | 89 | 1011.4 |
| 20260903074420 | 60 | 290 | 0.9 | 2.6 | 0.00 | 0.00 | 0.00 | 89 | 1011.4 |
| 20260903073419 | 60 | 290 | 0.9 | 2.6 | 0.00 | 0.00 | 0.00 | 89 | 1011.5 |
| 20260903072919 | 60 | 290 | 0.9 | 3.5 | 0.00 | 0.00 | 0.00 | 89 | 1011.5 |
| 20260903072418 | 61 | 290 | 0.9 | 3.5 | 0.00 | 0.00 | 0.00 | 89 | 1011.5 |
| 20260903071916 | 61 | 290 | 0.9 | 3.5 | 0.00 | 0.00 | 0.00 | 89 | 1011.5 |
| 20260903071419 | 61 | 290 | 0.0 | 2.6 | 0.00 | 0.00 | 0.00 | 90 | 1011.5 |
| 20260903070914 | 61 | 290 | 0.0 | 2.6 | 0.00 | 0.00 | 0.00 | 90 | 1011.5 |
| 20260903070411 | 61 | 290 | 0.0 | 3.5 | 0.00 | 0.00 | 0.00 | 90 | 1011.5 |
| 20260903065906 | 61 | 290 | 0.9 | 3.5 | 0.00 | 0.00 | 0.00 | 90 | 1011.5 |
| 20260903065407 | 61 | 290 | 0.0 | 2.6 | 0.00 | 0.00 | 0.00 | 90 | 1011.3 |
| 20260903064907 | 61 | 290 | 0.9 | 2.6 | 0.00 | 0.00 | 0.00 | 90 | 1011.3 |
| 20260903064405 | 61 | 290 | 0.9 | 2.6 | 0.00 | 0.00 | 0.00 | 90 | 1011.3 |
| 20260903063909 | 61 | 290 | 0.9 | 5.2 | 0.00 | 0.00 | 0.00 | 90 | 1011.2 |
| 20260903062857 | 61 | 294 | 1.7 | 5.2 | 0.00 | 0.00 | 0.00 | 90 | 1011.2 |
| 20260903062357 | 62 | 328 | 1.7 | 3.5 | 0.00 | 0.00 | 0.00 | 90 | 1011.2 |
| 20260903061858 | 62 | 329 | 1.7 | 3.5 | 0.00 | 0.00 | 0.00 | 90 | 1011.2 |
| 20260903061355 | 62 | 329 | 1.7 | 3.5 | 0.00 | 0.00 | 0.00 | 90 | 1011.3 |
| 20260903060851 | 62 | 329 | 1.7 | 4.3 | 0.00 | 0.00 | 0.00 | 90 | 1011.3 |
| 20260903060350 | 62 | 329 | 1.7 | 4.3 | 0.00 | 0.00 | 0.00 | 90 | 1011.3 |
| 20260903055847 | 62 | 289 | 2.6 | 5.2 | 0.00 | 0.00 | 0.00 | 90 | 1011.3 |
| 20260903054847 | 62 | 331 | 1.7 | 5.2 | 0.00 | 0.00 | 0.00 | 90 | 1011.3 |
| 20260903053846 | 62 | 342 | 1.7 | 3.5 | 0.00 | 0.00 | 0.00 | 90 | 1011.4 |
| 20260903053345 | 62 | 342 | 1.7 | 3.5 | 0.00 | 0.00 | 0.00 | 90 | 1011.4 |
| 20260903052846 | 62 | 342 | 1.7 | 3.5 | 0.00 | 0.00 | 0.00 | 90 | 1011.3 |
| 20260903052340 | 62 | 342 | 0.9 | 3.5 | 0.00 | 0.00 | 0.00 | 89 | 1011.3 |
| 20260903051837 | 63 | 342 | 0.9 | 3.5 | 0.00 | 0.00 | 0.00 | 89 | 1011.3 |
| 20260903051334 | 63 | 342 | 0.9 | 3.5 | 0.00 | 0.00 | 0.00 | 89 | 1011.3 |
| 20260903050835 | 63 | 343 | 0.9 | 5.2 | 0.00 | 0.00 | 0.00 | 89 | 1011.3 |
| 20260903045833 | 63 | 319 | 1.7 | 4.3 | 0.00 | 0.00 | 0.00 | 89 | 1011.2 |
| 20260903044332 | 63 | 319 | 1.7 | 4.3 | 0.00 | 0.00 | 0.00 | 88 | 1011.2 |
| 20260903042832 | 64 | 319 | 1.7 | 3.5 | 0.00 | 0.00 | 0.00 | 88 | 1011.1 |
| 20260903042328 | 64 | 319 | 1.7 | 4.3 | 0.00 | 0.00 | 0.00 | 88 | 1011.1 |
| 20260903041828 | 64 | 321 | 2.6 | 6.1 | 0.00 | 0.00 | 0.00 | 88 | 1011.1 |
| 20260903041325 | 64 | 321 | 1.7 | 6.1 | 0.00 | 0.00 | 0.00 | 88 | 1011.1 |
| 20260903040825 | 64 | 310 | 1.7 | 4.3 | 0.00 | 0.00 | 0.00 | 88 | 1011.1 |
| 20260903040324 | 64 | 274 | 1.7 | 8.7 | 0.00 | 0.00 | 0.00 | 88 | 1011.1 |
| 20260903035821 | 64 | 270 | 2.6 | 8.7 | 0.00 | 0.00 | 0.00 | 88 | 1010.9 |
| 20260903035320 | 64 | 302 | 3.5 | 7.0 | 0.00 | 0.00 | 0.00 | 88 | 1010.9 |
| 20260903034820 | 64 | 265 | 2.6 | 7.0 | 0.00 | 0.00 | 0.00 | 88 | 1010.9 |
| 20260903034320 | 64 | 284 | 2.6 | 7.8 | 0.00 | 0.00 | 0.00 | 87 | 1010.7 |
| 20260903033818 | 64 | 305 | 2.6 | 7.8 | 0.00 | 0.00 | 0.00 | 87 | 1010.7 |
| 20260903033320 | 63 | 277 | 2.6 | 6.1 | 0.00 | 0.00 | 0.00 | 87 | 1010.7 |
| 20260903032816 | 64 | 278 | 2.6 | 6.1 | 0.00 | 0.00 | 0.00 | 86 | 1010.6 |
| 20260903032315 | 64 | 279 | 1.7 | 6.1 | 0.00 | 0.00 | 0.00 | 86 | 1010.6 |
| 20260903030807 | 64 | 271 | 2.6 | 5.2 | 0.00 | 0.00 | 0.00 | 85 | 1010.6 |
| 20260903030305 | 64 | 318 | 2.6 | 5.2 | 0.00 | 0.00 | 0.00 | 85 | 1010.6 |
| 20260903025805 | 64 | 275 | 1.7 | 5.2 | 0.00 | 0.00 | 0.00 | 84 | 1010.6 |
| 20260903025306 | 64 | 313 | 1.7 | 5.2 | 0.00 | 0.00 | 0.00 | 84 | 1010.6 |
| 20260903024804 | 65 | 313 | 2.6 | 7.0 | 0.00 | 0.00 | 0.00 | 84 | 1010.6 |
| 20260903024300 | 65 | 269 | 2.6 | 7.0 | 0.00 | 0.00 | 0.00 | 83 | 1010.6 |
| 20260903023757 | 65 | 275 | 2.6 | 6.1 | 0.00 | 0.00 | 0.00 | 83 | 1010.6 |
| 20260903023257 | 65 | 304 | 2.6 | 7.0 | 0.00 | 0.00 | 0.00 | 82 | 1010.6 |
| 20260903022756 | 65 | 318 | 2.6 | 7.0 | 0.00 | 0.00 | 0.00 | 82 | 1010.6 |
| 20260903021750 | 66 | 305 | 2.6 | 6.1 | 0.00 | 0.00 | 0.00 | 81 | 1010.6 |
| 20260903021247 | 66 | 294 | 3.5 | 9.6 | 0.00 | 0.00 | 0.00 | 80 | 1010.7 |
| 20260903020744 | 66 | 263 | 3.5 | 9.6 | 0.00 | 0.00 | 0.00 | 80 | 1010.7 |
| 20260903020245 | 66 | 266 | 3.5 | 8.7 | 0.00 | 0.00 | 0.00 | 79 | 1010.7 |
| 20260903015741 | 66 | 283 | 3.5 | 8.7 | 0.00 | 0.00 | 0.00 | 78 | 1010.7 |
| 20260903014737 | 67 | 305 | 2.6 | 8.7 | 0.00 | 0.00 | 0.00 | 76 | 1010.7 |
| 20260903014235 | 67 | 280 | 3.5 | 8.7 | 0.00 | 0.00 | 0.00 | 75 | 1010.7 |
| 20260903013735 | 68 | 289 | 3.5 | 7.0 | 0.00 | 0.00 | 0.00 | 75 | 1010.7 |
| 20260903012234 | 70 | 323 | 4.3 | 8.7 | 0.00 | 0.00 | 0.00 | 71 | 1010.7 |
| 20260903011734 | 70 | 331 | 3.5 | 8.7 | 0.00 | 0.00 | 0.00 | 69 | 1010.7 |
| 20260903011231 | 71 | 309 | 3.5 | 7.8 | 0.00 | 0.00 | 0.00 | 68 | 1010.8 |
| 20260903010735 | 71 | 301 | 3.5 | 7.8 | 0.00 | 0.00 | 0.00 | 69 | 1010.8 |
| 20260903010231 | 71 | 300 | 4.3 | 7.8 | 0.00 | 0.00 | 0.00 | 69 | 1010.8 |
| 20260903005730 | 72 | 309 | 4.3 | 8.7 | 0.00 | 0.00 | 0.00 | 69 | 1010.8 |
| 20260903005227 | 72 | 310 | 4.3 | 8.7 | 0.00 | 0.00 | 0.00 | 68 | 1010.8 |
| 20260903004725 | 72 | 266 | 3.5 | 7.8 | 0.00 | 0.00 | 0.00 | 68 | 1010.8 |
| 20260903004224 | 73 | 314 | 3.5 | 7.8 | 0.00 | 0.00 | 0.00 | 67 | 1010.9 |
| 20260903003726 | 73 | 311 | 3.5 | 7.8 | 0.00 | 0.00 | 0.00 | 67 | 1010.9 |
| 20260903002721 | 73 | 305 | 4.3 | 10.4 | 0.00 | 0.00 | 0.00 | 67 | 1010.9 |
| 20260903002219 | 73 | 346 | 4.3 | 11.3 | 0.00 | 0.00 | 0.00 | 67 | 1010.9 |
| 20260903001717 | 73 | 346 | 4.3 | 11.3 | 0.00 | 0.00 | 0.00 | 67 | 1011.0 |
| 20260903000718 | 72 | 313 | 3.5 | 7.8 | 0.00 | 0.00 | 0.00 | 68 | 1010.9 |
| 20260902235709 | 71 | 302 | 5.2 | 11.3 | 0.00 | 0.00 | 0.00 | 68 | 1011.0 |
| 20260902235207 | 72 | 297 | 5.2 | 11.3 | 0.00 | 0.00 | 0.00 | 65 | 1011.0 |
| 20260902234704 | 72 | 294 | 5.2 | 11.3 | 0.00 | 0.00 | 0.00 | 65 | 1011.0 |
| 20260902234206 | 72 | 288 | 5.2 | 10.4 | 0.00 | 0.00 | 0.00 | 66 | 1011.1 |
| 20260902233702 | 73 | 256 | 5.2 | 10.4 | 0.00 | 0.00 | 0.00 | 65 | 1011.1 |
| 20260902233202 | 73 | 288 | 5.2 | 12.2 | 0.00 | 0.00 | 0.00 | 63 | 1011.2 |
| 20260902232157 | 74 | 318 | 5.2 | 12.2 | 0.00 | 0.00 | 0.00 | 60 | 1011.3 |
| 20260902231655 | 75 | 306 | 4.3 | 10.4 | 0.00 | 0.00 | 0.00 | 59 | 1011.3 |
| 20260902231154 | 76 | 295 | 4.3 | 12.2 | 0.00 | 0.00 | 0.00 | 58 | 1011.4 |
| 20260902230654 | 76 | 331 | 4.3 | 12.2 | 0.00 | 0.00 | 0.00 | 58 | 1011.4 |
| 20260902225654 | 77 | 331 | 3.5 | 9.6 | 0.00 | 0.00 | 0.00 | 57 | 1011.6 |
| 20260902224147 | 75 | 315 | 4.3 | 8.7 | 0.00 | 0.00 | 0.00 | 59 | 1011.7 |
| 20260902223645 | 74 | 306 | 5.2 | 11.3 | 0.00 | 0.00 | 0.00 | 60 | 1011.7 |
| 20260902222640 | 75 | 282 | 5.2 | 13.0 | 0.00 | 0.00 | 0.00 | 57 | 1011.8 |
| 20260902222137 | 76 | 309 | 4.3 | 11.3 | 0.00 | 0.00 | 0.00 | 56 | 1011.8 |
| 20260902221132 | 76 | 325 | 4.3 | 9.6 | 0.00 | 0.00 | 0.00 | 57 | 1011.9 |
| 20260902220631 | 76 | 311 | 5.2 | 10.4 | 0.00 | 0.00 | 0.00 | 57 | 1011.9 |
| 20260902220128 | 75 | 313 | 5.2 | 12.2 | 0.00 | 0.00 | 0.00 | 58 | 1011.9 |
| 20260902215625 | 74 | 298 | 4.3 | 12.2 | 0.00 | 0.00 | 0.00 | 59 | 1011.9 |
| 20260902214621 | 75 | 312 | 4.3 | 11.3 | 0.00 | 0.00 | 0.00 | 59 | 1011.9 |
| 20260902214125 | 76 | 326 | 3.5 | 9.6 | 0.00 | 0.00 | 0.00 | 57 | 1011.8 |
| 20260902213616 | 76 | 296 | 4.3 | 9.6 | 0.00 | 0.00 | 0.00 | 57 | 1011.8 |
| 20260902212612 | 77 | 103 | 3.5 | 9.6 | 0.00 | 0.00 | 0.00 | 55 | 1011.9 |
| 20260902212109 | 77 | 338 | 4.3 | 11.3 | 0.00 | 0.00 | 0.00 | 56 | 1011.9 |
| 20260902211608 | 77 | 339 | 4.3 | 11.3 | 0.00 | 0.00 | 0.00 | 55 | 1011.9 |
| 20260902211109 | 78 | 333 | 4.3 | 9.6 | 0.00 | 0.00 | 0.00 | 55 | 1011.9 |
| 20260902210609 | 78 | 333 | 3.5 | 8.7 | 0.00 | 0.00 | 0.00 | 55 | 1011.9 |
| 20260902210106 | 78 | 333 | 3.5 | 8.7 | 0.00 | 0.00 | 0.00 | 55 | 1011.9 |
| 20260902205606 | 78 | 321 | 3.5 | 10.4 | 0.00 | 0.00 | 0.00 | 56 | 1011.9 |
| 20260902205101 | 78 | 5 | 4.3 | 10.4 | 0.00 | 0.00 | 0.00 | 55 | 1011.9 |
| 20260902204607 | 77 | 313 | 3.5 | 8.7 | 0.00 | 0.00 | 0.00 | 56 | 1011.9 |
| 20260902204103 | 77 | 345 | 3.5 | 8.7 | 0.00 | 0.00 | 0.00 | 56 | 1011.9 |
| 20260902203559 | 77 | 305 | 4.3 | 8.7 | 0.00 | 0.00 | 0.00 | 55 | 1011.9 |
| 20260902203058 | 77 | 313 | 4.3 | 8.7 | 0.00 | 0.00 | 0.00 | 56 | 1011.9 |
| 20260902202556 | 77 | 346 | 4.3 | 9.6 | 0.00 | 0.00 | 0.00 | 55 | 1012.0 |
| 20260902202055 | 76 | 335 | 4.3 | 9.6 | 0.00 | 0.00 | 0.00 | 56 | 1012.0 |
| 20260902201556 | 77 | 348 | 4.3 | 9.6 | 0.00 | 0.00 | 0.00 | 55 | 1012.0 |
| 20260902201050 | 77 | 320 | 4.3 | 9.6 | 0.00 | 0.00 | 0.00 | 55 | 1012.1 |
| 20260902200549 | 77 | 283 | 3.5 | 8.7 | 0.00 | 0.00 | 0.00 | 54 | 1012.1 |
| 20260902195550 | 76 | 322 | 4.3 | 7.8 | 0.00 | 0.00 | 0.00 | 53 | 1012.0 |
| 20260902194547 | 76 | 325 | 4.3 | 9.6 | 0.00 | 0.00 | 0.00 | 53 | 1012.0 |
| 20260902194049 | 77 | 311 | 4.3 | 9.6 | 0.00 | 0.00 | 0.00 | 52 | 1012.0 |
| 20260902193544 | 76 | 345 | 4.3 | 8.7 | 0.00 | 0.00 | 0.00 | 53 | 1012.0 |
| 20260902193042 | 76 | 336 | 4.3 | 7.8 | 0.00 | 0.00 | 0.00 | 53 | 1012.0 |
| 20260902192540 | 77 | 315 | 4.3 | 8.7 | 0.00 | 0.00 | 0.00 | 51 | 1012.2 |
| 20260902192039 | 77 | 323 | 4.3 | 8.7 | 0.00 | 0.00 | 0.00 | 51 | 1012.2 |
| 20260902191539 | 76 | 310 | 4.3 | 7.8 | 0.00 | 0.00 | 0.00 | 52 | 1012.2 |